FW0794 Weather Reports


time (UTC)temp
C
wind
direction
speed
KPH
gust
KPH
rain 1hr
cm
rain 24hr
cm
rain mn
cm
humidity
%
barometer
mb
20260505170038 14 157 0.0 0.0 0.00 0.00 0.00 76 974.8
20260505164535 14 250 0.0 0.0 0.00 0.00 0.00 76 974.8
20260505163032 13 234 0.0 0.0 0.00 0.00 0.00 77 974.8
20260505161539 13 228 0.0 0.0 0.00 0.00 0.00 76 974.8
20260505153023 13 344 0.0 0.0 0.00 0.00 0.00 77 974.8
20260505151521 13 294 0.0 0.0 0.00 0.00 0.00 77 974.8
20260505124515 12 294 0.0 0.0 0.00 0.00 0.00 75 974.8
20260505123008 12 355 0.0 0.0 0.00 0.00 0.00 74 974.8
20260505121526 12 355 0.0 0.0 0.00 0.00 0.00 74 974.8
20260505120008 12 327 0.0 0.0 0.00 0.00 0.00 75 974.8
20260505114506 12 321 0.0 0.0 0.00 0.00 0.00 75 974.8
20260505113006 12 321 0.0 0.0 0.00 0.00 0.00 75 974.8
20260505111505 12 313 0.0 0.0 0.00 0.00 0.00 75 974.8
20260505101601 12 313 0.0 0.0 0.00 0.00 0.00 75 974.8
20260505094632 12 246 0.0 0.0 0.00 0.00 0.00 75 974.8
20260505093101 12 249 0.0 0.0 0.00 0.00 0.00 76 974.8
20260505091611 12 248 0.0 0.0 0.00 0.00 0.00 77 974.8
20260505090105 12 35 0.0 0.0 0.00 0.00 0.00 79 974.8
20260505084558 12 35 0.0 0.0 0.00 0.00 0.00 79 974.8
20260505083102 12 55 0.0 0.0 0.00 0.00 0.00 80 974.8
20260505081600 12 68 0.0 0.0 0.00 0.00 0.00 79 974.8
20260505080053 12 161 0.0 0.0 0.00 0.00 0.00 78 974.8
20260505074552 12 161 0.0 0.0 0.00 0.00 0.00 78 974.8
20260505071550 13 161 0.0 0.0 0.00 0.00 0.00 77 974.8
20260505070044 13 161 0.0 0.0 0.00 0.00 0.00 77 974.8
20260505064546 13 161 0.0 0.0 0.00 0.00 0.00 77 974.8
20260505063043 13 131 0.0 0.0 0.00 0.00 0.00 77 974.8
20260505061543 13 28 0.0 0.0 0.00 0.00 0.00 77 974.8
20260505060042 13 28 0.0 0.0 0.00 0.00 0.00 77 974.8
20260505054551 13 252 0.0 0.0 0.00 0.00 0.00 77 974.8
20260505053041 13 252 0.0 0.0 0.00 0.00 0.00 77 974.8
20260505051541 13 252 0.0 0.0 0.00 0.00 0.00 78 974.8
20260505041539 13 261 0.0 0.0 0.00 0.00 0.00 76 974.8
20260505040039 13 263 0.0 0.0 0.00 0.00 0.00 76 974.8
20260505034539 13 240 0.0 0.0 0.00 0.00 0.00 75 974.8
20260505033041 14 254 0.0 0.0 0.00 0.00 0.00 74 974.8
20260505031551 14 275 0.0 0.0 0.00 0.00 0.00 74 974.8
20260505030039 14 264 0.0 0.0 0.00 0.00 0.00 74 974.8
20260505024547 15 270 0.0 0.0 0.00 0.00 0.00 74 974.8
20260505023041 15 237 0.0 0.0 0.00 0.00 0.00 73 974.8
20260505021536 15 272 0.0 0.0 0.00 0.00 0.00 71 974.8
20260505020036 16 238 0.0 0.0 0.00 0.00 0.00 69 974.8
20260505014558 16 273 0.0 0.0 0.00 0.00 0.00 68 974.8
20260505013035 16 280 0.0 0.0 0.00 0.00 0.00 66 974.8
20260505011541 17 265 0.0 0.0 0.00 0.00 0.00 64 974.8
20260505010035 17 273 0.0 0.0 0.00 0.00 0.00 64 974.8
20260505004534 17 269 0.0 0.0 0.00 0.00 0.00 62 974.8
20260505003032 17 222 0.0 0.0 0.00 0.00 0.00 60 974.8
20260505001536 17 254 0.0 0.0 0.00 0.00 0.00 60 974.8
20260505000032 18 272 0.0 0.0 0.00 0.00 0.00 61 974.8
20260504234531 18 259 0.0 0.0 0.00 0.00 0.00 62 974.8
20260504233029 18 209 0.0 0.0 0.00 0.00 0.00 62 974.8
20260504231526 17 213 0.0 0.0 0.00 0.00 0.00 62 974.8
20260504230025 17 252 0.0 0.0 0.00 0.00 0.00 62 974.8
20260504224533 17 206 0.0 0.0 0.00 0.00 0.00 65 974.8
20260504223023 17 218 0.0 0.0 0.00 0.00 0.00 65 974.8
20260504221523 18 268 0.0 0.0 0.00 0.00 0.00 67 974.8
20260504220021 17 255 0.0 0.0 0.00 0.00 0.00 68 974.8
20260504214525 17 267 0.0 0.0 0.00 0.00 0.00 67 974.8
20260504213021 17 286 0.0 0.0 0.00 0.00 0.00 66 974.8
20260504211518 17 225 0.0 0.0 0.00 0.00 0.00 69 974.8
20260504210031 17 272 0.0 0.0 0.00 0.00 0.00 71 974.8
20260504204527 17 246 0.0 0.0 0.00 0.00 0.00 71 974.8
20260504203017 17 239 0.0 0.0 0.00 0.00 0.00 72 974.8
20260504201513 17 210 0.0 0.0 0.00 0.00 0.00 73 974.8
20260504200012 17 178 0.0 0.0 0.00 0.00 0.00 73 974.8
20260504194514 17 216 0.0 0.0 0.00 0.00 0.00 73 974.8
20260504193011 17 221 0.0 0.0 0.00 0.00 0.00 74 974.8
20260504191510 17 230 0.0 0.0 0.00 0.00 0.00 71 974.8
20260504190008 17 273 0.0 0.0 0.00 0.00 0.00 71 974.8
20260504184507 17 259 0.0 0.0 0.00 0.00 0.00 72 974.8
20260504183009 17 215 0.0 0.0 0.00 0.00 0.00 71 974.8
20260504181506 17 179 0.0 0.0 0.00 0.00 0.00 71 974.8
20260504180119 17 190 0.0 0.0 0.00 0.00 0.00 74 974.8
20260504174556 17 138 0.0 0.0 0.00 0.00 0.00 74 974.8
20260504173106 16 156 0.0 0.0 0.00 0.00 0.00 75 974.8
20260504171549 16 149 0.0 0.0 0.00 0.00 0.00 76 974.8